オリー彗星

P/2008 Q2 ( Ory )

English version
Home page
Updated on March 10, 2009

---------------------------------------------------------------------

・ プロフィール

発見日 2008年8月27日
発見光度 17.6等
発見者 Michel Ory (Delemont, Switzerland)

・ 写真集

・ 軌道要素

Epoch 2008 Oct. 21.0 TT = JDT 2454760.5
T 2008 Oct. 19.00684 TT                                 MPC
q   1.3822733            (2000.0)            P               Q
n   0.16890824     Peri.  329.58912     +0.86292661     -0.50358743
a   3.2411725      Node    60.70618     +0.47277140     +0.77525070
e   0.5735268      Incl.    2.75514     +0.17845129     +0.38129523
P   5.84

・ 星図

・ 光度変化

        m1 = 12.5 + 5 logΔ + 30.0 log r(t - 25)

---------------------------------------------------------------------

軌道要素はM.P.E.C. 2008-U18に掲載されたものです。
星図はステラナビゲータ Ver.8 (アストロアーツ) で作成したものです。
光度グラフはComet for Windowsで作成したものです。

---------------------------------------------------------------------

Copyright(C) Seiichi Yoshida (comet@aerith.net). All rights reserved.